ONEWEB-0624 (55165 NORAD) Tracking and Keplerian Element Data

This shows tracking and keplerian element data for the satellite.

Feedback or suggestion? Click here.




ElementValue
Catalog55165
NameONEWEB-0624
Epoch Orbit130
Epoch Day13.91667824
Epoch Year2023
RAAN284.1393
Inclination86.5128
Eccentricity0.0012922
Argument of Perigee213.1627
Mean Anonmoly64.3945
Mean Motion14.91863226
Decay Rate-0.00048777
L11 55165U 23004AB 23013.91667824 -.00048777 00000+0 -48657-2 0 9999
L22 55165 86.5128 284.1393 0012922 213.1627 64.3945 14.91863226 1309



Live tracking and technical data element details for ONEWEB-0624 (NORAD 55165). ONEWEB-0624 can be tracked NOW for your location showing map with azimuth and elevation plus other details from your city location.







IsCatalogInMostPopularTable: catalog: 55165, numindb: 3
Update: records affected: 1



GetName: 55165 ONEWEB-0624

Hit Count: updated at: Tue, 07 Feb 2023 15:18:01 GMT